User: anonymous   Login
Location: Unspecified
(0.0000°N, 0.0000°E)
Time: 18:29:54
(UTC+02:00)
Language:

Cosmos 1538 Rocket - Orbit

View from above orbital plane
View from above orbital plane
View from above satellite
View from above satellite

Ground track
Ground track

The orbit data is extracted from the following two-line orbital elements,

1 14760U 84019B   16146.43556414  .00000108  00000-0  46084-4 0  9995
2 14760  74.0426 113.1313 0026768  67.3528  68.1733 14.35776424687930
Epoch (UTC): 25 May 2016 10:27:12
Eccentricity: 0.0026768
inclination: 74.0426°
perigee height: 753 km
apogee height: 791 km
right ascension of ascending node: 113.1313°
argument of perigee: 67.3528°
revolutions per day: 14.35776424
mean anomaly at epoch: 68.1733°
orbit number at epoch: 68793

The dashed part of the orbit path shows where the satellite is in the earth's shadow,  

DLR